Colorado Springs, CO

8:03 PM MDT on April 27, 2017 (GMT -0600)
City Of Colorado Springs Municipal

Weather History for KCOS - November, 2011

Change the Weather History Date:

Wednesday, November 23, 2011

  Actual Average Record
Temperature  
Mean Temperature 47 °F 35 °F  
Max Temperature 63 °F 47 °F 69 °F (1925)
Min Temperature 30 °F 22 °F -8 °F (1918)
Degree Days  
Heating Degree Days 18 30  
Month to date heating degree days 561 584  
Since 1 July heating degree days 1116 1258  
Cooling Degree Days 0 0  
Month to date cooling degree days 0 0  
Year to date cooling degree days 841 455  
Moisture  
Dew Point 15 °F    
Average Humidity 32    
Maximum Humidity 51    
Minimum Humidity 12    
Precipitation  
Precipitation 0.00 in 0.01 in 0.16 in (1905)
Month to date precipitation 0.19 0.31  
Year to date precipitation 15.78 16.11  
Snow  
Snow 0.00 in 0.20 in 1.50 in (1899)
Month to date snowfall 1.0 3.4  
Since 1 July snowfall 4.6 6.5  
Since 1 September snowfall 4.6 6.5  
Snow Depth 0.00 in    
Sea Level Pressure  
Sea Level Pressure 30.17 in    
Wind  
Wind Speed 7 mph (NE)    
Max Wind Speed 17 mph    
Max Gust Speed 21 mph    
Visibility 10 miles    
Events      
T = Trace of Precipitation, MM = Missing Value Source: NWS Daily Summary

Daily Weather History Graph

Daily Weather History Graph

Search for Another Location

Airport or City:

Trip Planner

Search our weather history database for the weather conditions in past years. The results will help you decide how hot, cold, wet, or windy it might be!

Date:

Astronomy

Nov. 23, 2011 Rise Set
Actual Time 6:49 AM MST 4:40 PM MST
Civil Twilight 6:20 AM MST 5:09 PM MST
Nautical Twilight 5:48 AM MST 5:41 PM MST
Astronomical Twilight 5:16 AM MST 6:13 PM MST
Moon 4:57 AM MST (11/23) 3:23 PM MST (11/23)
Length of Visible Light 10h 48m
Length of Day
9h 50m
Waning Crescent, 3% of the Moon is Illuminated
Nov 23
Waning Crescent
Nov 24
New
Dec 2
First Quarter
Dec 10
Full
Dec 17
Last Quarter

Hourly Weather History & Observations

Time (MST) Temp. Windchill Dew Point Humidity Pressure Visibility Wind Dir Wind Speed Gust Speed Precip Events Conditions
12:54 AM 39.0 °F 34.8 °F 16.0 °F 39% 30.19 in 10.0 mi NNW 5.8 mph - N/A   Clear
1:54 AM 35.1 °F 29.3 °F 16.0 °F 46% 30.20 in 10.0 mi NNE 6.9 mph - N/A   Clear
2:54 AM 39.0 °F 36.8 °F 15.1 °F 38% 30.18 in 10.0 mi Variable 3.5 mph - N/A   Clear
3:54 AM 37.9 °F 35.5 °F 15.1 °F 39% 30.20 in 10.0 mi NNW 3.5 mph - N/A   Clear
4:54 AM 33.8 °F 29.6 °F 15.8 °F 48% 30.26 in 10.0 mi North 4.6 mph - N/A   Clear
5:54 AM 33.1 °F 26.9 °F 15.1 °F 48% 30.29 in 10.0 mi North 6.9 mph - N/A   Partly Cloudy
6:54 AM 33.1 °F 26.9 °F 14.0 °F 46% 30.32 in 10.0 mi North 6.9 mph - N/A   Clear
7:54 AM 41.0 °F 35.8 °F 19.0 °F 41% 30.27 in 10.0 mi NNE 8.1 mph - N/A   Clear
8:54 AM 50.0 °F - 16.0 °F 26% 30.22 in 10.0 mi ESE 8.1 mph - N/A   Clear
9:54 AM 53.1 °F - 15.1 °F 22% 30.21 in 10.0 mi Calm Calm - N/A   Clear
10:54 AM 55.4 °F - 15.8 °F 21% 30.25 in 10.0 mi SSE 4.6 mph - N/A   Clear
11:54 AM 57.0 °F - 14.0 °F 18% 30.16 in 10.0 mi ESE 8.1 mph - N/A   Clear
12:54 PM 61.0 °F - 12.0 °F 15% 30.10 in 10.0 mi SSE 9.2 mph - N/A   Clear
1:54 PM 62.1 °F - 9.0 °F 12% 30.09 in 10.0 mi SSE 15.0 mph - N/A   Clear
2:54 PM 61.0 °F - 10.9 °F 14% 30.06 in 10.0 mi SE 13.8 mph - N/A   Clear
3:54 PM 57.9 °F - 15.1 °F 19% 30.09 in 10.0 mi SSE 15.0 mph - N/A   Clear
4:54 PM 51.1 °F - 16.0 °F 25% 30.14 in 10.0 mi SE 10.4 mph - N/A   Clear
5:54 PM 48.0 °F - 17.1 °F 29% 30.17 in 10.0 mi East 3.5 mph - N/A   Clear
6:54 PM 42.1 °F - 16.0 °F 35% 30.21 in 10.0 mi Calm Calm - N/A   Clear
7:54 PM 37.4 °F 32.8 °F 17.6 °F 45% 30.16 in 10.0 mi North 5.8 mph - N/A   Clear
8:54 PM 33.1 °F 26.9 °F 17.1 °F 52% 30.14 in 10.0 mi North 6.9 mph - N/A   Clear
9:54 PM 35.1 °F 32.2 °F 17.1 °F 48% 30.11 in 10.0 mi NE 3.5 mph - N/A   Clear
10:54 PM 33.1 °F 26.9 °F 17.1 °F 52% 30.09 in 10.0 mi NNE 6.9 mph - N/A   Clear
11:54 PM 33.1 °F 26.1 °F 17.1 °F 52% 30.06 in 10.0 mi North 8.1 mph - N/A   Clear